Home > Weather > Kelowna > Past weeks

Flag for Canada Past Weather in Kelowna, British Columbia, Canada — Yesterday and Last 2 Weeks

Now
88 °F

Sunny.


Feels Like: 85 °F
Forecast: 61 / 89 °F
Wind: 12 mph from North

Location: Kelowna Airport

Current Time: Jul 26, 2016 at 2:51:55 PM

Latest Report: Jul 26, 2016 at 2:00 PM


Visibility: 9 mi

Pressure: 29.96 "Hg

Humidity: 29%

Dew Point: 52 °F

Location of KelownaLocation

Past Weather in Kelowna — Graph

°F

Kelowna Temperature Yesterday

Maximum temperature yesterday: 88 °F (at 4:00 PM)
Minimum temperature yesterday: 55 °F (at 4:00 AM)
Average temperature yesterday: 72 °F

High & Low Weather Summary for the Past Weeks

 TemperatureHumidityPressure
High88 °F (Jul 24, 5:00 PM)100% (Jul 17, 5:00 AM)30.20 "Hg (Jul 17, 5:00 AM)
Low48 °F (Jul 14, 6:00 AM)15% (Jul 21, 5:00 PM)29.80 "Hg (Jul 18, 3:54 PM)
Average67 °F60%30.01 "Hg
* Reported Jul 11 1:00 PM — Jul 26 1:00 PM, Kelowna, Weather by CustomWeather, © 2016

Note: Actual official high and low records may vary slightly from our data, if they occured in-between our weather recording intervals... More about our weather records

Advertising

Kelowna Weather History for the Previous 24 Hours

Scroll right to see more
 ConditionsComfort  
Time TempWeatherWind HumidityBarometerVisibility
1:00 PM
Tue, Jul 26
88 °FSunny.12 mph29%29.98 "Hg9 mi
12:00 PM84 °FScattered clouds.6 mph33%30.01 "Hg9 mi
11:00 AM79 °FSunny.3 mph39%30.02 "Hg9 mi
10:00 AM77 °FSunny.2 mph47%30.03 "Hg9 mi
9:00 AM75 °FPassing clouds.3 mph50%30.04 "Hg9 mi
8:00 AM70 °FHaze.2 mph64%30.04 "Hg1 mi
7:57 AM70 °FHaze.2 mph64%30.04 "Hg1 mi
7:00 AM63 °FPartly sunny.2 mph83%30.04 "Hg9 mi
6:00 AM61 °FMostly cloudy.2 mph77%30.03 "Hg9 mi
5:00 AM57 °FClear.2 mph88%30.01 "Hg9 mi
4:00 AM61 °FClear.2 mph77%29.99 "Hg9 mi
3:00 AM64 °FClear.3 mph68%29.98 "Hg9 mi
2:00 AM63 °FClear.3 mph77%29.98 "Hg9 mi
1:00 AM64 °FPassing clouds.No wind78%29.97 "Hg9 mi
12:00 AM66 °FOvercast.2 mph73%29.97 "Hg9 mi
11:00 PM
Mon, Jul 25
68 °FPassing clouds.6 mph69%29.96 "Hg9 mi
10:00 PM70 °FPassing clouds.5 mph64%29.94 "Hg9 mi
9:00 PM73 °FMostly cloudy.2 mph65%29.91 "Hg9 mi
8:00 PM84 °FPartly sunny.No wind37%29.89 "Hg9 mi
7:00 PM84 °FPartly sunny.3 mph40%29.89 "Hg9 mi
6:00 PM84 °FPartly sunny.8 mph37%29.90 "Hg9 mi
5:00 PM86 °FPassing clouds.12 mph33%29.91 "Hg9 mi
4:00 PM88 °FSunny.10 mph31%29.92 "Hg9 mi
3:00 PM86 °FSunny.9 mph33%29.94 "Hg9 mi
2:00 PM84 °FPartly sunny.7 mph33%29.95 "Hg9 mi
Weather by CustomWeather, © 2016

See weather overviewHow to use our weather pages